STARLINK-35923, 66641

Orbit data source: Space-Track

STARLINK-35923, 66641 is a payload satellite owned by SpaceX/Seattle (US) in LEO that was launched on Sun, 23 Nov 2025 UTC via an FALCON 9 launch vehicle from the Air Force Western Test Range (AFWTR). Payload-class satellites include a variety of spacecraft equipped with specific instruments for various scientific and technological missions. These include communications satellites like Starlink; space stations such as the ISS; scientific satellites like the Hubble; Earth observation satellites from companies like Planet Labs, Umbra, and HawkEye 360; GPS; miniature CubeSats for education and research; and military/defense satellites.

Loading next visibility...
Identifier
66641, 2025-271AA
Orbit
LEO
Country
Flag of USUS
Related business
Manufacturer
SpaceX/Seattle
Mission
Operational Commercial Communications
Bus & Motor
STARLINK V2MO, Unknown motor
Mass
575 kg wet, ~530 kg dry
Launch date (UTC)
2025-11-23 (10 months ago)
Launch vehicle
FALCON 9
Launch site
Air Force Western Test Range (AFWTR)
Object type
Payload
Rocket body
Debris
Shape & HBR
Box + 1 Pan, 17.7 m
Radar Cross Section
41.120 m², Large (>1 m²)

Expand to show TLE details & history
Last TLE update: 3 days ago

TLE from 3 days ago
0 STARLINK-35923
1 66641U 25271AA  26262.72100407  .00017423  00000-0  52501-3 0  9992
2 66641  53.1577 317.2682 0001103  82.6809 277.4319 15.34434927 47297
Epoch: 2026-09-19T17:18Z
TLE epoch observation values (Epoch: 2026-09-19T17:18:14.751Z)
Latitude
-0.00002°
Longitude
59.08124°
Altitude
463.403 km
Speed
7.636 km/s
True Right ascension
21h 09m 04s
True Declination
0° 00' 00"
Sunlit
Object was in full shadow at epoch
Visualization orbit readout
Latitude
Unknown
Longitude
Unknown
Altitude
Unknown
Speed
Unknown
Apparent Right ascension
Unknown
Apparent Declination
Unknown
Sunlit
N/A
Visualization observer readout
Local Sidereal Time
16:27:11
Azimuth
Unknown
Elevation
Unknown
Doppler factor
Unknown
Orbital elements
Apogee altitude
463.611 km
Perigee altitude
462.102 km
Semi-major axis
6,840.994 km
Eccentricity
0.00011
Inclination
53.1577°
RAAN
317.2682°
Arg. of periapsis
82.6809°
True anomaly
277.41937°
Mean anomaly
277.4319°
Eccentric anomaly
277.42563°
Mean motion
3.83587 °/min
Orbital period
93.85 mins
BSTAR
0.00052501
Loading maneuver chart data...
Computing Atmospheric mass density...
Loading historical data...
Loading historical data...
Loading historical data...
Loading historical data...
Loading historical data...
Loading historical data...
Loading historical data...

Documentation

Showing up to 5 results
|